FW4185 Weather Reports


Display with metric or nautical units.
time (UTC)temp
F
wind
direction
speed
MPH
gust
MPH
rain 1hr
in
rain 24hr
in
rain mn
in
humidity
%
barometer
mb
20260902165031 0 357 3.0 8.0 0.00 0.00 0.00
20260902164247 76 356 6.0 10.0 0.00 0.00 0.00 82 1015.0
20260902163557 76 356 6.0 10.0 0.00 0.00 0.00 82 1014.5
20260902162933 76 356 6.0 11.0 0.00 0.00 0.00 80 1014.6
20260902162248 0 357 5.0 5.0 0.00 0.00 0.00
20260902161459 0 358 3.0 7.0 0.00 0.00 0.00
20260902160655 77 355 0.0 0.0 0.00 0.00 0.00 76 1014.9
20260902155446 78 356 0.0 7.0 0.00 0.00 0.00 73 1015.0
20260902154805 79 359 3.0 5.0 0.00 0.00 0.00 72 1014.9
20260902154125 78 356 1.0 5.0 0.00 0.00 0.00 70 1015.1
20260902153446 79 356 0.0 0.0 0.00 0.00 0.00 69 1015.1
20260902152545 79 356 0.0 4.0 0.00 0.00 0.00 67 1014.9
20260902151905 78 355 0.0 0.0 0.00 0.00 0.00 69 1015.0
20260902151225 79 355 0.0 0.0 0.00 0.00 0.00 67 1015.3
20260902150545 77 355 0.0 0.0 0.00 0.00 0.00 70 1015.4
20260902145601 0 358 0.0 7.0 0.00 0.00 0.00
20260902144810 77 355 2.0 10.0 0.00 0.00 0.00 72 1015.7
20260902144130 77 359 4.0 10.0 0.00 0.00 0.00 71 1015.6
20260902143450 77 358 0.0 8.0 0.00 0.00 0.00 72 1015.7
20260902142810 0 356 5.0 7.0 0.00 0.00 0.00
20260902142103 77 356 6.0 8.0 0.00 0.00 0.00 75 1015.6
20260902141425 76 356 4.0 8.0 0.00 0.00 0.00 77 1015.6
20260902140746 76 355 3.0 9.0 0.00 0.00 0.00 76 1015.5
20260902140105 77 356 0.0 0.0 0.00 0.00 0.00 77 1015.8
20260902134724 77 358 0.0 0.0 0.00 0.00 0.00 75 1015.7
20260902134038 76 358 0.0 0.0 0.00 0.00 0.00 78 1015.7
20260902133359 0 355 0.0 3.0 0.00 0.00 0.00
20260902132619 0 354 0.0 0.0 0.00 0.00 0.00
20260902131551 0 357 0.0 0.0 0.00 0.00 0.00
20260902130758 74 355 0.0 0.0 0.00 0.00 0.00 83 1016.0
20260902130119 74 357 0.0 3.0 0.00 0.00 0.00 82 1016.0
20260902125444 74 358 0.0 0.0 0.00 0.00 0.00 80 1016.1
20260902124759 74 355 0.0 0.0 0.00 0.00 0.00 81 1015.7
20260902124119 0 358 0.0 0.0 0.00 0.00 0.00
20260902123331 74 356 0.0 0.0 0.00 0.00 0.00 81 1015.6
20260902122650 74 355 0.0 5.0 0.00 0.00 0.00 80 1015.4
20260902122011 0 356 0.0 11.0 0.00 0.00 0.00
20260902121221 74 355 8.0 16.0 0.00 0.00 0.00 78 1014.3
20260902120543 0 358 9.0 8.0 0.00 0.00 0.00
20260902115750 75 355 10.0 19.0 0.00 0.00 0.00 80 1014.0
20260902115109 75 355 10.0 21.0 0.00 0.00 0.00 80 1014.5
20260902114430 75 355 10.0 17.0 0.00 0.00 0.00 80 1014.7
20260902113750 0 355 7.0 7.0 0.00 0.00 0.00
20260902112947 74 356 2.0 6.0 0.00 0.00 0.00 82 1014.1
20260902112317 74 355 0.0 9.0 0.00 0.00 0.00 81 1013.8
20260902111627 74 355 5.0 9.0 0.00 0.00 0.00 81 1014.0
20260902110947 0 356 8.0 6.0 0.00 0.00 0.00
20260902110153 0 355 6.0 8.0 0.00 0.00 0.00
20260902105403 73 356 3.0 8.0 0.00 0.00 0.00 82 1013.5
20260902104723 73 355 2.0 9.0 0.00 0.00 0.00 82 1013.5
20260902104043 73 355 6.0 11.0 0.00 0.00 0.00 82 1013.4
20260902103403 73 355 0.0 0.0 0.00 0.00 0.00 83 1013.4
20260902102723 73 356 0.0 0.0 0.00 0.00 0.00 83 1013.4
20260902102043 73 356 0.0 0.0 0.00 0.00 0.00 82 1013.6
20260902101408 73 356 0.0 0.0 0.00 0.00 0.00 83 1013.7
20260902100723 73 355 0.0 0.0 0.00 0.00 0.00 83 1013.4
20260902100042 73 357 0.0 0.0 0.00 0.00 0.00 83 1013.4
20260902095403 0 358 0.0 6.0 0.00 0.00 0.00
20260902094610 73 353 2.0 7.0 0.00 0.00 0.00 85 1013.4
20260902093930 73 356 2.0 6.0 0.00 0.00 0.00 85 1013.6
20260902093251 73 356 0.0 0.0 0.00 0.00 0.00 86 1013.6
20260902092611 73 354 0.0 3.0 0.00 0.00 0.00 86 1013.6
20260902091932 73 359 0.0 2.0 0.00 0.00 0.00 86 1013.7
20260902091252 73 356 0.0 0.0 0.00 0.00 0.00 86 1014.0
20260902090611 73 357 0.0 5.0 0.00 0.00 0.00 86 1014.0
20260902085932 0 355 2.0 6.0 0.00 0.00 0.00
20260902085223 73 357 0.0 0.0 0.00 0.00 0.00 86 1014.1
20260902084542 73 356 0.0 0.0 0.00 0.00 0.00 86 1014.3
20260902083902 73 357 0.0 0.0 0.00 0.00 0.00 86 1014.4
20260902083222 73 355 0.0 0.0 0.00 0.00 0.00 87 1014.4
20260902082542 73 357 0.0 0.0 0.00 0.00 0.00 87 1014.4
20260902081904 0 355 0.0 0.0 0.00 0.00 0.00
20260902081109 0 358 0.0 0.0 0.00 0.00 0.00
20260902080321 73 357 0.0 0.0 0.00 0.00 0.00 86 1014.7
20260902075641 73 358 0.0 0.0 0.00 0.00 0.00 87 1014.7
20260902075001 73 357 0.0 0.0 0.00 0.00 0.00 87 1014.7
20260902074322 0 356 0.0 0.0 0.00 0.00 0.00
20260902073421 0 354 0.0 0.0 0.00 0.00 0.00
20260902072520 73 356 0.0 0.0 0.00 0.00 0.00 88 1014.6
20260902071842 73 355 0.0 0.0 0.00 0.00 0.00 88 1014.7
20260902071210 73 357 0.0 0.0 0.00 0.00 0.00 87 1014.8
20260902070520 73 353 0.0 0.0 0.00 0.00 0.00 87 1014.7
20260902065841 0 357 0.0 0.0 0.00 0.00 0.00
20260902064941 0 358 0.0 0.0 0.00 0.00 0.00
20260902064153 73 358 0.0 0.0 0.00 0.00 0.00 88 1014.9
20260902063513 0 357 0.0 0.0 0.00 0.00 0.00
20260902062501 73 356 0.0 0.0 0.00 0.00 0.00 88 1014.8
20260902061821 0 359 0.0 0.0 0.00 0.00 0.00
20260902060926 73 353 0.0 0.0 0.00 0.00 0.00 88 1014.9
20260902060246 73 357 0.0 0.0 0.00 0.00 0.00 88 1014.9
20260902055606 72 357 0.0 0.0 0.00 0.00 0.00 88 1014.9
20260902054925 73 356 0.0 0.0 0.00 0.00 0.00 88 1014.9
20260902054246 0 360 0.0 0.0 0.00 0.00 0.00
20260902053339 0 352 0.0 0.0 0.00 0.00 0.00
20260902052331 73 357 0.0 0.0 0.00 0.00 0.00 88 1014.9
20260902051650 72 357 0.0 0.0 0.00 0.00 0.00 87 1014.8
20260902051010 73 357 0.0 0.0 0.00 0.00 0.00 87 1014.8
20260902050340 0 357 0.0 0.0 0.00 0.00 0.00
20260902045541 73 356 0.0 0.0 0.00 0.00 0.00 86 1014.8
20260902044911 0 356 0.0 0.0 0.00 0.00 0.00
20260902044112 73 358 0.0 0.0 0.00 0.00 0.00 86 1014.8
20260902043432 73 359 0.0 0.0 0.00 0.00 0.00 86 1014.7
20260902042753 73 357 0.0 0.0 0.00 0.00 0.00 86 1014.8
20260902042123 0 360 0.0 0.0 0.00 0.00 0.00
20260902041319 0 357 0.0 0.0 0.00 0.00 0.00
20260902040530 73 358 0.0 0.0 0.00 0.00 0.00 86 1014.8
20260902035850 0 353 0.0 0.0 0.00 0.00 0.00
20260902034947 73 357 0.0 0.0 0.00 0.00 0.00 84 1014.6
20260902034306 73 357 0.0 0.0 0.00 0.00 0.00 83 1014.5
20260902033626 74 356 0.0 0.0 0.00 0.00 0.00 83 1014.5
20260902032947 74 357 0.0 0.0 0.00 0.00 0.00 83 1014.5
20260902032307 74 355 0.0 0.0 0.00 0.00 0.00 82 1014.5
20260902031626 74 357 0.0 0.0 0.00 0.00 0.00 81 1014.4
20260902030947 0 355 0.0 0.0 0.00 0.00 0.00
20260902030041 74 356 0.0 0.0 0.00 0.00 0.01 80 1014.5
20260902025402 0 356 0.0 0.0 0.00 0.00 0.01
20260902024605 75 358 0.0 0.0 0.00 0.00 0.01 78 1014.5
20260902023552 75 357 0.0 0.0 0.00 0.00 0.01 77 1014.5
20260902022912 0 352 0.0 0.0 0.00 0.00 0.01
20260902022114 76 357 0.0 0.0 0.00 0.00 0.01 76 1014.5
20260902021434 75 355 0.0 0.0 0.00 0.00 0.01 76 1014.6
20260902020753 75 358 0.0 0.0 0.00 0.00 0.01 77 1014.5
20260902020114 0 356 0.0 0.0 0.00 0.00 0.01
20260902015408 0 356 0.0 0.0 0.00 0.00 0.01
20260902014350 75 357 0.0 0.0 0.00 0.00 0.01 77 1014.6
20260902013709 0 357 0.0 0.0 0.00 0.00 0.01
20260902013002 76 357 0.0 0.0 0.00 0.00 0.01 77 1014.6
20260902011641 75 356 0.0 0.0 0.00 0.00 0.01 79 1014.6
20260902011011 75 356 0.0 0.0 0.00 0.00 0.01 81 1014.5
20260902010322 75 357 0.0 0.0 0.00 0.00 0.01 86 1014.5
20260902005641 0 357 0.0 0.0 0.00 0.00 0.01
20260902004901 0 358 0.0 0.0 0.00 0.00 0.01
20260902003846 76 355 0.0 0.0 0.00 0.00 0.01 86 1014.2
20260902003208 0 355 0.0 0.0 0.00 0.00 0.01
20260902002418 0 358 0.0 0.0 0.00 0.00 0.01
20260902001518 75 356 0.0 0.0 0.00 0.00 0.01 85 1014.0
20260902000838 0 357 0.0 0.0 0.00 0.00 0.01
20260902000050 0 358 0.0 0.0 0.00 0.00 0.01
20260901235301 75 357 0.0 0.0 0.00 0.00 0.01 86 1014.0
20260901234620 75 357 0.0 0.0 0.00 0.00 0.01 86 1014.0
20260901233940 75 355 0.0 0.0 0.00 0.00 0.01 86 1014.0
20260901233301 0 356 0.0 0.0 0.00 0.00 0.01
20260901232507 76 355 0.0 0.0 0.00 0.00 0.01 84 1014.1
20260901231824 0 355 0.0 0.0 0.00 0.00 0.01
20260901231034 77 351 0.0 0.0 0.00 0.00 0.01 81 1014.1
20260901230354 77 356 0.0 0.0 0.00 0.00 0.01 81 1014.1
20260901225718 77 357 0.0 0.0 0.00 0.00 0.01 79 1014.1
20260901225034 78 357 0.0 0.0 0.00 0.00 0.01 80 1014.2
20260901224354 0 356 0.0 0.0 0.00 0.00 0.01
20260901223608 77 358 0.0 0.0 0.00 0.00 0.01 78 1014.3
20260901222924 78 356 0.0 0.0 0.00 0.00 0.01 77 1014.4
20260901222245 0 352 0.0 0.0 0.00 0.00 0.01
20260901221452 79 357 0.0 0.0 0.00 0.00 0.01 74 1014.3
20260901220812 79 357 0.0 0.0 0.00 0.00 0.01 75 1014.3
20260901220132 78 356 0.0 0.0 0.00 0.00 0.01 75 1014.3
20260901215452 78 357 0.0 0.0 0.00 0.00 0.01 78 1014.3
20260901214812 78 358 0.0 0.0 0.00 0.00 0.01 77 1014.3
20260901214132 78 356 0.0 0.0 0.00 0.00 0.01 78 1014.3
20260901213452 78 357 0.0 4.0 0.00 0.00 0.01 78 1014.3
20260901212812 0 354 5.0 3.0 0.00 0.00 0.01
20260901212019 0 355 5.0 4.0 0.00 0.00 0.01
20260901210957 78 357 0.0 4.0 0.00 0.00 0.01 74 1014.3
20260901210322 78 356 0.0 8.0 0.00 0.00 0.01 76 1014.3
20260901205637 78 355 5.0 8.0 0.00 0.00 0.01 77 1014.3
20260901204957 79 356 0.0 0.0 0.00 0.00 0.01 74 1014.3
20260901204317 0 356 0.0 0.0 0.00 0.00 0.01
20260901203533 0 356 0.0 0.0 0.00 0.00 0.01
20260901202740 0 358 0.0 8.0 0.00 0.00 0.01
20260901201953 78 355 5.0 8.0 0.00 0.00 0.01 78 1014.4
20260901201318 0 355 3.0 10.0 0.00 0.00 0.01
20260901200519 0 356 2.0 9.0 0.00 0.00 0.01
20260901195804 0 355 6.0 4.0 0.00 0.00 0.01
20260901195010 0 355 7.0 6.0 0.00 0.00 0.01
20260901194218 78 358 7.0 11.0 0.00 0.00 0.01 78 1014.2
20260901193538 77 355 7.0 11.0 0.00 0.00 0.01 80 1014.3
20260901192858 77 355 6.0 10.0 0.00 0.00 0.01 81 1014.3
20260901192218 77 355 6.0 10.0 0.00 0.00 0.01 81 1014.4
20260901191539 78 355 1.0 8.0 0.00 0.00 0.01 79 1014.5
20260901190908 0 357 7.0 6.0 0.00 0.00 0.01
20260901190106 77 354 0.0 6.0 0.00 0.00 0.01 83 1014.8
20260901185426 77 355 3.0 6.0 0.00 0.00 0.01 82 1014.8
20260901184746 0 357 0.0 0.0 0.00 0.00 0.01
20260901183825 0 352 0.0 5.0 0.00 0.00 0.01
20260901182709 78 355 0.0 0.0 0.00 0.00 0.01 83 1014.8
20260901182030 0 354 0.0 5.0 0.00 0.00 0.01
20260901181119 78 356 2.0 6.0 0.00 0.00 0.01 79 1014.7
20260901180440 77 356 0.0 7.0 0.00 0.00 0.01 83 1014.6
20260901175809 0 353 6.0 3.0 0.00 0.00 0.01
20260901175008 77 359 5.0 10.0 0.00 0.00 0.01 83 1014.5
20260901174331 77 355 1.0 9.0 0.00 0.00 0.01 83 1014.3
20260901173649 77 358 0.0 10.0 0.00 0.00 0.01 83 1014.3
20260901173013 77 357 6.0 10.0 0.00 0.00 0.01 85 1014.3
20260901172329 77 357 3.0 8.0 0.00 0.00 0.01 85 1014.1
20260901171649 0 356 4.0 6.0 0.00 0.00 0.01
20260901170855 76 354 3.0 5.0 0.00 0.00 0.01 83 1013.9
20260901170110 77 356 1.0 7.0 0.00 0.00 0.01 83 1013.9